Time,TemperatureF,DewpointF,PressureIn,WindDirection,WindDirectionDegrees,WindSpeedMPH,WindSpeedGustMPH,Humidity,HourlyPrecipIn,Conditions,Clouds,dailyrainin,SoftwareType,DateUTC
2013-09-16 00:13:00,47.0,46.0,-100.00,ESE,110,0.0,0.0,96,0.00,,,-99.99,,2013-09-16 05:13:00,
2013-09-16 00:53:00,46.0,46.0,-100.00,East,100,0.0,1.0,96,0.00,,,-99.99,,2013-09-16 05:53:00,
2013-09-16 01:12:00,46.0,45.0,-100.00,East,95,0.0,1.0,96,0.00,,,-99.99,,2013-09-16 06:12:00,
2013-09-16 01:52:00,45.0,45.0,-100.00,ESE,115,1.0,1.0,97,0.00,,,-99.99,,2013-09-16 06:52:00,
2013-09-16 02:11:00,46.0,45.0,-100.00,ESE,115,0.0,1.0,98,0.00,,,-99.99,,2013-09-16 07:11:00,
2013-09-16 02:52:00,47.0,46.0,-100.00,ESE,115,1.0,2.0,98,0.00,,,-99.99,,2013-09-16 07:52:00,
2013-09-16 03:11:00,47.0,46.0,-100.00,ESE,110,2.0,4.0,98,0.00,,,-99.99,,2013-09-16 08:11:00,
2013-09-16 03:52:00,41.0,41.0,-100.00,ESE,115,3.0,6.0,98,0.00,,,-99.99,,2013-09-16 08:52:00,
2013-09-16 04:11:00,42.0,42.0,-100.00,SE,140,2.0,6.0,98,0.00,,,-99.99,,2013-09-16 09:11:00,
2013-09-16 04:53:00,45.0,45.0,-100.00,SE,135,4.0,7.0,98,0.00,,,-99.99,,2013-09-16 09:53:00,
2013-09-16 05:12:00,44.0,44.0,-100.00,ESE,115,2.0,6.0,98,0.00,,,-99.99,,2013-09-16 10:12:00,
2013-09-16 05:53:00,45.0,45.0,-100.00,East,95,1.0,5.0,98,0.00,,,-99.99,,2013-09-16 10:53:00,
2013-09-16 06:12:00,45.0,45.0,-100.00,ESE,115,2.0,3.0,98,0.00,,,-99.99,,2013-09-16 11:12:00,
2013-09-16 06:52:00,45.0,44.0,-100.00,ESE,115,2.0,4.0,98,0.00,,,-99.99,,2013-09-16 11:52:00,
2013-09-16 07:12:00,44.0,44.0,-100.00,SE,125,3.0,4.0,98,0.00,,,-99.99,,2013-09-16 12:12:00,
2013-09-16 07:52:00,44.0,44.0,-100.00,ESE,105,1.0,4.0,99,0.00,,,-99.99,,2013-09-16 12:52:00,
2013-09-16 08:11:00,44.0,44.0,-100.00,ESE,115,2.0,5.0,99,0.00,,,-99.99,,2013-09-16 13:11:00,
2013-09-16 08:52:00,46.0,46.0,-100.00,ESE,110,4.0,6.0,99,0.00,,,-99.99,,2013-09-16 13:52:00,
2013-09-16 09:11:00,47.0,47.0,-100.00,ESE,120,4.0,7.0,99,0.00,,,-99.99,,2013-09-16 14:11:00,
2013-09-16 09:52:00,51.0,51.0,-100.00,SSE,165,6.0,9.0,99,0.00,,,-99.99,,2013-09-16 14:52:00,
2013-09-16 10:11:00,52.0,52.0,-100.00,SE,125,4.0,9.0,99,0.00,,,-99.99,,2013-09-16 15:11:00,
2013-09-16 10:53:00,55.0,53.0,-100.00,SE,145,4.0,9.0,92,0.00,,,-99.99,,2013-09-16 15:53:00,
2013-09-16 11:12:00,56.0,53.0,-100.00,SE,140,6.0,9.0,89,0.00,,,-99.99,,2013-09-16 16:12:00,
2013-09-16 11:52:00,60.0,53.0,-100.00,SE,145,5.0,9.0,77,0.00,,,-99.99,,2013-09-16 16:52:00,
2013-09-16 12:12:00,60.0,51.0,-100.00,SE,125,4.0,9.0,73,0.00,,,-99.99,,2013-09-16 17:12:00,
2013-09-16 12:53:00,62.0,50.0,-100.00,SSE,150,3.0,9.0,64,0.00,,,-99.99,,2013-09-16 17:53:00,
2013-09-16 13:12:00,63.0,50.0,-100.00,ESE,120,4.0,9.0,62,0.00,,,-99.99,,2013-09-16 18:12:00,
2013-09-16 13:52:00,65.0,49.0,-100.00,SE,130,4.0,9.0,57,0.00,,,-99.99,,2013-09-16 18:52:00,
2013-09-16 14:11:00,65.0,49.0,-100.00,ESE,115,4.0,9.0,56,0.00,,,-99.99,,2013-09-16 19:11:00,
2013-09-16 14:53:00,66.0,48.0,-100.00,SE,145,4.0,9.0,52,0.00,,,-99.99,,2013-09-16 19:53:00,
2013-09-16 15:11:00,67.0,48.0,-100.00,SE,145,4.0,9.0,51,0.00,,,-99.99,,2013-09-16 20:11:00,
2013-09-16 15:52:00,63.0,42.0,-100.00,SE,130,4.0,9.0,46,0.00,,,-99.99,,2013-09-16 20:52:00,
2013-09-16 16:11:00,62.0,41.0,-100.00,SE,135,6.0,9.0,45,0.00,,,-99.99,,2013-09-16 21:11:00,
2013-09-16 17:54:00,68.0,43.0,-100.00,ESE,120,6.0,9.0,40,0.00,,,-99.99,,2013-09-16 22:54:00,
2013-09-16 18:12:00,68.0,42.0,-100.00,SE,125,4.0,9.0,39,0.00,,,-99.99,,2013-09-16 23:12:00,
2013-09-16 18:53:00,67.0,42.0,-100.00,SE,130,5.0,9.0,40,0.00,,,-99.99,,2013-09-16 23:53:00,
2013-09-16 19:11:00,67.0,42.0,-100.00,SE,125,6.0,9.0,41,0.00,,,-99.99,,2013-09-17 00:11:00,
2013-09-16 19:52:00,62.0,40.0,-100.00,ESE,120,6.0,9.0,43,0.00,,,-99.99,,2013-09-17 00:52:00,
2013-09-16 20:11:00,61.0,39.0,-100.00,ESE,120,6.0,9.0,43,0.00,,,-99.99,,2013-09-17 01:11:00,
2013-09-16 20:52:00,58.0,39.0,-100.00,ESE,120,4.0,7.0,48,0.00,,,-99.99,,2013-09-17 01:52:00,
2013-09-16 21:11:00,58.0,39.0,-100.00,ESE,120,4.0,9.0,50,0.00,,,-99.99,,2013-09-17 02:11:00,
2013-09-16 21:52:00,56.0,43.0,-100.00,SE,125,6.0,9.0,60,0.00,,,-99.99,,2013-09-17 02:52:00,
2013-09-16 22:11:00,56.0,44.0,-100.00,SE,130,6.0,9.0,62,0.00,,,-99.99,,2013-09-17 03:11:00,
2013-09-16 22:54:00,55.0,47.0,-100.00,SE,135,6.0,9.0,73,0.00,,,-99.99,,2013-09-17 03:54:00,
2013-09-16 23:14:00,55.0,47.0,-100.00,SE,130,6.0,9.0,75,0.00,,,-99.99,,2013-09-17 04:14:00,
2013-09-16 23:54:00,52.0,47.0,-100.00,ESE,120,6.0,9.0,83,0.00,,,-99.99,,2013-09-17 04:54:00,